Back to catalog

CZ-6A Y12 STAGE 2

AlivePO
NORAD 65549·ROCKET BODY·🇨🇳 China
This satellite name has not been confirmed by official sources yet.

Launched Sep 6, 2025 from Taiyuan Satellite Launch Center

Loading…

Next Passes (next 24 hours)

TLE

FreshSource: Space-Track

Epoch: Sep 13, 2026, 18:21 UTC

1 65549U 25199F   26256.76525608  .00000354  00000-0  60271-4 0  9997
2 65549  86.0166 350.7176 0065975 240.8801 118.5796 14.64434090 54441

Track CZ-6A Y12 STAGE 2 in real time with AllMySat

Download on the App Store